Regional Weather Roundup
Issued by NWS

Home | Current Version | Previous Version | Graphics & Text | Print | Product List | Glossary On
Versions: 1 2 3 4 5 6 7 8 9 10 11 12 13 14 15 16 17 18 19 20 21 22 23 24 25 26 27 28 29 30 31 32 33 34 35 36 37 38 39 40 41 42 43 44 45 46 47 48 49 50
000
ASUS45 KABQ 252110
RWRNM
WEATHER ROUNDUP FOR NEW MEXICO
NATIONAL WEATHER SERVICE ALBUQUERQUE NM
200 PM MST THU DEC 25 2014

NOTE: "FAIR" MEANS FEW OR NO CLOUDS BELOW 12,000 FEET AGL WITH NO
       SIGNIFICANT WEATHER OR OBSTRUCTIONS TO VISION.

      THIS PRODUCT IS RELEASED AS TWO VERSIONS.  ONE VERSION NEAR
      THE TOP OF THE HOUR CONTAINING PRELIMINARY DATA FROM ALBUQUERQUE
      AND OTHER STATIONS.  A FINAL VERSION WITH ADDITIONAL DATA IS
      ISSUED ABOUT 10 MINUTES AFTER THE HOUR.

NMZ501-503-504-510>518-252200-
NORTHWEST PLATEAU/NORTHCENTRAL MOUNTAINS

CITY           SKY/WX    TMP DP  RH WIND       PRES   REMARKS
FARMINGTON     PTSUNNY   41  22  46 W18       29.58S
LOS ALAMOS     PTSUNNY   40  21  46 SW14G20   29.63S WCI  32
SANTA FE       MOSUNNY   45  14  28 SW10      29.62F
TAOS           CLOUDY    36  18  48 W8        29.64F WCI  29
ANGEL FIRE     CLOUDY    30  19  65 W8        29.63R WCI  22

$$
NMZ402-403-502-505>509-252200-
WESTCENTRAL MOUNTAINS/SOUTHWEST MOUNTAINS

CITY           SKY/WX    TMP DP  RH WIND       PRES   REMARKS
GALLUP         LGT SNOW  32  29  88 SW10      29.63F VSB 3/4 WCI  24
GRANTS         CLOUDY    44  18  36 W10G17    29.64F
SILVER CITY    FAIR      57  12  17 W26G36    29.70F

$$
NMZ407-409-411-412-252200-
SOUTHERN DESERTS

CITY           SKY/WX    TMP DP  RH WIND       PRES   REMARKS
LORDSBURG      FAIR      63  16  16 SW20G28   29.67F
DEMING         CLOUDY    64  14  14 SW31G45   29.68F
LAS CRUCES     FAIR      61   9  13 S13G25    29.71F
HOLLOMAN AFB   FAIR      60   9  13 S20       29.68F
ALAMOGORDO     MOSUNNY   59   9  13 S24G31    29.70F
T OR C         FAIR      62  12  14 SW23G40   29.62F

$$
NMZ519>523-252200-
CENTRAL VALLEYS/CENTRAL HIGHLANDS

CITY           SKY/WX    TMP DP  RH WIND       PRES   REMARKS
ALBUQUERQUE    MOSUNNY   51  13  21 VRB6      29.61F
DOUBLE EAGLE   PTSUNNY   46  16  29 S7        29.62F
MORIARTY ARPT  FAIR      53  15  22 SW16      29.62F
CLINES CORNERS SUNNY     48  14  25 SW28G36   29.60F
BELEN          FAIR      53  12  19 S22G28    29.59F
SOCORRO        FAIR      55  10  16 SE13G20   29.62F

$$
NMZ524>526-539-540-252200-
SOUTHCENTRAL MOUNTAINS

CITY           SKY/WX    TMP DP  RH WIND       PRES   REMARKS
RUIDOSO        SUNNY     48   7  18 SW39G49   29.67R

$$
NMZ527>531-252200-
NORTHEAST HIGHLANDS/NORTHEAST PLAINS

CITY           SKY/WX    TMP DP  RH WIND       PRES   REMARKS
LAS VEGAS      MOSUNNY   45  18  34 W32G48    29.59S
RATON          SUNNY     47  20  34 SW29G38   29.54R
CLAYTON        MOSUNNY   56  17  21 SW25G36   29.55R

$$
NMZ532>537-252200-
EASTCENTRAL PLAINS

CITY           SKY/WX    TMP DP  RH WIND       PRES   REMARKS
TUCUMCARI      PTSUNNY   52  13  21 SW7       29.61F
CANNON AFB     CLOUDY    45  17  33 S8        29.67F
CLOVIS AIRPORT CLOUDY    45  19  36 S8        29.67S

$$
NMZ028-029-538-252200-
SOUTHEAST PLAINS

CITY           SKY/WX    TMP DP  RH WIND       PRES   REMARKS
ROSWELL        PTSUNNY   65   8  10 SW28G37   29.60F
ARTESIA        PTSUNNY   66  14  13 S22G35    29.68F
CARLSBAD       MOSUNNY   68  16  13 S13       29.68F
HOBBS          SUNNY     57  18  21 S20       29.71F


$$



USA.gov is the U.S. government's official web portal to all federal, state and local government web resources and services.